QFA76 CYVR-YSSY

Flight info

Callsign QFA76
Flight time N/A
Altitude 34000
Route GRG8/26L TOU DCT SEDAR DCT HEKAB A332 AUNTI/N0496F360 R463 APACK DCT CHOKO B326 NIXEE DCT 18N165W 11N172W 05N178W/N0497F380 01N178E 05S173E 07S172E 14S168E 17S165E/N0489F400 19S163E DCT HARVS DCT IDNER H98 SANAD H91 IGDAM H652 TESAT
Aircraft B789/H-SDE1E2E3FGHIJ2J3J4J5M1RWXY/LB1D1

Departure

Time 2026-05-03 20:23
Airport Vancouver International Airport (CYVR)

Arrival

Time N/A
Airport Sydney Kingsford Smith International Airport (YSSY)
Time Latitude Longitude Altitude Speed Heading
2026-05-03 20:15 49.19756 -123.18328 18 ft 0 kts 100°
2026-05-03 20:15 49.19756 -123.18324 18 ft 1 kts 98°
2026-05-03 20:15 49.19748 -123.18299 17 ft 3 kts 131°
2026-05-03 20:15 49.19730 -123.18293 16 ft 4 kts 187°
2026-05-03 20:16 49.19702 -123.18339 14 ft 7 kts 245°
2026-05-03 20:16 49.19694 -123.18432 14 ft 10 kts 272°
2026-05-03 20:16 49.19714 -123.18537 14 ft 10 kts 296°
2026-05-03 20:16 49.19728 -123.18600 14 ft 2 kts 251°
2026-05-03 20:17 49.19704 -123.18649 14 ft 9 kts 218°
2026-05-03 20:17 49.19622 -123.18695 14 ft 17 kts 192°
2026-05-03 20:17 49.19480 -123.18728 15 ft 25 kts 187°
2026-05-03 20:17 49.19328 -123.18697 16 ft 21 kts 184°
2026-05-03 20:18 49.19168 -123.18695 15 ft 26 kts 144°
2026-05-03 20:18 49.19005 -123.18499 17 ft 34 kts 141°
2026-05-03 20:18 49.18928 -123.18195 15 ft 24 kts 101°
2026-05-03 20:18 49.18898 -123.17957 15 ft 22 kts 99°
2026-05-03 20:19 49.18874 -123.17733 16 ft 21 kts 99°
2026-05-03 20:19 49.18849 -123.17513 15 ft 22 kts 100°
2026-05-03 20:19 49.18823 -123.17284 15 ft 23 kts 99°
2026-05-03 20:19 49.18795 -123.17036 15 ft 25 kts 100°
2026-05-03 20:20 49.18765 -123.16769 15 ft 26 kts 98°
2026-05-03 20:20 49.18733 -123.16487 16 ft 28 kts 102°
2026-05-03 20:20 49.18673 -123.16255 16 ft 19 kts 133°
2026-05-03 20:20 49.18626 -123.16091 15 ft 15 kts 117°
2026-05-03 20:21 49.18555 -123.16045 16 ft 10 kts 183°
2026-05-03 20:21 49.18500 -123.16069 17 ft 7 kts 213°
2026-05-03 20:21 49.18484 -123.16118 16 ft 5 kts 262°
2026-05-03 20:21 49.18486 -123.16182 15 ft 7 kts 278°
2026-05-03 20:22 49.18488 -123.16199 15 ft 4 kts 279°
2026-05-03 20:22 49.18529 -123.16555 13 ft 66 kts 281°
2026-05-03 20:22 49.18642 -123.17544 17 ft 121 kts 280°
2026-05-03 20:22 49.18815 -123.19068 26 ft 166 kts 281°
2026-05-03 20:23 49.19023 -123.20808 503 ft 160 kts 283°
2026-05-03 20:23 49.19217 -123.22426 953 ft 157 kts 279°
2026-05-03 20:23 49.19286 -123.24177 918 ft 172 kts 271°
2026-05-03 20:23 49.19139 -123.25996 893 ft 174 kts 262°
2026-05-03 20:24 49.18941 -123.27819 889 ft 174 kts 262°
2026-05-03 20:24 49.18742 -123.29672 894 ft 182 kts 262°
2026-05-03 20:24 49.18413 -123.31601 926 ft 204 kts 242°
2026-05-03 20:24 49.17317 -123.33077 1248 ft 211 kts 216°
2026-05-03 20:25 49.16165 -123.34486 1745 ft 216 kts 224°
2026-05-03 20:25 49.15101 -123.36178 2130 ft 227 kts 229°
2026-05-03 20:25 49.13924 -123.38037 2174 ft 259 kts 224°
2026-05-03 20:25 49.12597 -123.39961 2792 ft 263 kts 224°
2026-05-03 20:26 49.11284 -123.41933 3471 ft 267 kts 225°
2026-05-03 20:26 49.09972 -123.43951 4154 ft 269 kts 225°
2026-05-03 20:26 49.08640 -123.45985 4834 ft 272 kts 224°
2026-05-03 20:26 49.07305 -123.48007 5458 ft 276 kts 224°
2026-05-03 20:27 49.05938 -123.50077 6115 ft 278 kts 225°
2026-05-03 20:27 49.04559 -123.52169 6701 ft 282 kts 224°
2026-05-03 20:27 49.03158 -123.54291 7291 ft 285 kts 225°
2026-05-03 20:27 49.01745 -123.56431 7871 ft 288 kts 224°
2026-05-03 20:28 49.00309 -123.58599 8430 ft 292 kts 224°
2026-05-03 20:28 48.98868 -123.60778 9063 ft 293 kts 224°
2026-05-03 20:28 48.97404 -123.62989 9599 ft 298 kts 225°
2026-05-03 20:28 48.95949 -123.65181 10153 ft 301 kts 225°
2026-05-03 20:29 48.94404 -123.67510 10176 ft 324 kts 225°
2026-05-03 20:29 48.92752 -123.69998 10229 ft 345 kts 225°
2026-05-03 20:29 48.90998 -123.72635 10295 ft 364 kts 225°
2026-05-03 20:29 48.89155 -123.75397 10460 ft 378 kts 225°
2026-05-03 20:30 48.87283 -123.78215 11047 ft 380 kts 225°
2026-05-03 20:30 48.85397 -123.81041 11533 ft 383 kts 225°
2026-05-03 20:30 48.83491 -123.83893 12037 ft 386 kts 225°
2026-05-03 20:30 48.81572 -123.86762 12504 ft 389 kts 225°
2026-05-03 20:31 48.79662 -123.89614 13043 ft 391 kts 225°
2026-05-03 20:31 48.77714 -123.92523 13494 ft 395 kts 225°
2026-05-03 20:31 48.75750 -123.95449 13959 ft 398 kts 225°
2026-05-03 20:31 48.73770 -123.98396 14433 ft 400 kts 225°
2026-05-03 20:32 48.71779 -124.01357 14821 ft 403 kts 225°
2026-05-03 20:32 48.69773 -124.04335 15275 ft 405 kts 225°
2026-05-03 20:32 48.67753 -124.07333 15692 ft 408 kts 225°
2026-05-03 20:32 48.65718 -124.10348 16104 ft 411 kts 225°
2026-05-03 20:33 48.63673 -124.13373 16525 ft 413 kts 225°
2026-05-03 20:33 48.61615 -124.16415 16905 ft 416 kts 225°
2026-05-03 20:33 48.59568 -124.19438 17301 ft 418 kts 225°
2026-05-03 20:33 48.57481 -124.22515 17675 ft 421 kts 225°
2026-05-03 20:34 48.55381 -124.25607 18061 ft 423 kts 225°
2026-05-03 20:34 48.53266 -124.28719 18419 ft 426 kts 225°
2026-05-03 20:34 48.51138 -124.31846 18725 ft 428 kts 225°
2026-05-03 20:34 48.48999 -124.34983 19023 ft 431 kts 225°
2026-05-03 20:35 48.46845 -124.38138 19310 ft 433 kts 225°
2026-05-03 20:35 48.44676 -124.41315 19558 ft 437 kts 225°
2026-05-03 20:35 48.42518 -124.44469 19847 ft 439 kts 225°
2026-05-03 20:35 48.40319 -124.47679 20122 ft 441 kts 225°
2026-05-03 20:36 48.38111 -124.50898 20404 ft 444 kts 225°
2026-05-03 20:36 48.35889 -124.54133 20662 ft 446 kts 225°
2026-05-03 20:36 48.33654 -124.57384 20938 ft 448 kts 225°
2026-05-03 20:36 48.31405 -124.60648 21186 ft 451 kts 224°
2026-05-03 20:37 48.28921 -124.63526 21436 ft 453 kts 210°
2026-05-03 20:37 48.26150 -124.65788 21706 ft 454 kts 208°
2026-05-03 20:37 48.23351 -124.67986 21971 ft 455 kts 207°
2026-05-03 20:37 48.20537 -124.70179 22214 ft 457 kts 207°
2026-05-03 20:38 48.17753 -124.72385 22443 ft 459 kts 208°
2026-05-03 20:38 48.14928 -124.74635 22677 ft 461 kts 208°
2026-05-03 20:38 48.12083 -124.76880 22899 ft 463 kts 207°
2026-05-03 20:38 48.09226 -124.79119 23128 ft 465 kts 207°
2026-05-03 20:39 48.06357 -124.81374 23341 ft 467 kts 207°
2026-05-03 20:39 48.03480 -124.83639 23544 ft 468 kts 207°
2026-05-03 20:39 48.00588 -124.85910 23703 ft 470 kts 207°
2026-05-03 20:39 47.97684 -124.88183 23894 ft 472 kts 207°
2026-05-03 20:40 47.94773 -124.90459 24060 ft 473 kts 207°
2026-05-03 20:40 47.91855 -124.92741 24235 ft 475 kts 207°
2026-05-03 20:40 47.88929 -124.95026 24403 ft 476 kts 207°
2026-05-03 20:40 47.86979 -124.96546 24515 ft 477 kts 207°
2026-05-03 20:41 47.83079 -124.99583 24720 ft 479 kts 207°
2026-05-03 20:41 47.80118 -125.01885 24864 ft 481 kts 207°
2026-05-03 20:41 47.77146 -125.04194 24945 ft 484 kts 207°
2026-05-03 20:41 47.74157 -125.06511 25116 ft 485 kts 207°
2026-05-03 20:42 47.71162 -125.08831 25263 ft 486 kts 207°
2026-05-03 20:42 47.68158 -125.11154 25420 ft 487 kts 207°
2026-05-03 20:42 47.65146 -125.13481 25571 ft 489 kts 207°
2026-05-03 20:42 47.62126 -125.15811 25723 ft 490 kts 207°
2026-05-03 20:43 47.59138 -125.18113 25872 ft 491 kts 207°
2026-05-03 20:43 47.56109 -125.20444 26152 ft 489 kts 207°
2026-05-03 20:43 47.53083 -125.22770 26276 ft 492 kts 207°
2026-05-03 20:43 47.50040 -125.25105 26443 ft 493 kts 207°
2026-05-03 20:44 47.46995 -125.27438 26576 ft 494 kts 207°
2026-05-03 20:44 47.43941 -125.29776 26728 ft 495 kts 207°
2026-05-03 20:44 47.40874 -125.32121 26882 ft 497 kts 207°
2026-05-03 20:44 47.37800 -125.34468 27016 ft 498 kts 207°
2026-05-03 20:45 47.34766 -125.36781 27165 ft 499 kts 207°
2026-05-03 20:45 47.31671 -125.39137 27265 ft 502 kts 206°
2026-05-03 20:45 47.28570 -125.41495 27411 ft 503 kts 206°
2026-05-03 20:45 47.25452 -125.43863 27550 ft 504 kts 206°
2026-05-03 20:46 47.22332 -125.46229 27794 ft 503 kts 207°
2026-05-03 20:46 47.19234 -125.48576 28089 ft 501 kts 206°
2026-05-03 20:46 47.16126 -125.50927 28198 ft 503 kts 206°
2026-05-03 20:46 47.13008 -125.53282 28357 ft 504 kts 206°
2026-05-03 20:47 47.09921 -125.55611 28473 ft 506 kts 206°
2026-05-03 20:47 47.06783 -125.57975 28577 ft 508 kts 206°
2026-05-03 20:47 47.03636 -125.60342 28742 ft 509 kts 206°
2026-05-03 20:47 47.00477 -125.62716 28877 ft 511 kts 206°
2026-05-03 20:48 46.98380 -125.64290 28966 ft 511 kts 206°
2026-05-03 20:48 46.94137 -125.67470 29164 ft 513 kts 206°
2026-05-03 20:48 46.90954 -125.69852 29302 ft 514 kts 206°
2026-05-03 20:48 46.87766 -125.72234 29541 ft 513 kts 206°
2026-05-03 20:49 46.85668 -125.73801 29770 ft 512 kts 206°
2026-05-03 20:49 46.78263 -125.79318 30027 ft 516 kts 206°
2026-05-03 20:49 46.75064 -125.81695 30134 ft 517 kts 206°
2026-05-03 20:50 46.71855 -125.84078 30241 ft 518 kts 206°
2026-05-03 20:50 46.68635 -125.86465 30348 ft 520 kts 206°
2026-05-03 20:50 46.66504 -125.88043 30417 ft 521 kts 206°
2026-05-03 20:51 46.60010 -125.92844 30500 ft 526 kts 206°
2026-05-03 20:51 46.56744 -125.95253 30618 ft 527 kts 206°
2026-05-03 20:51 46.53471 -125.97664 30867 ft 525 kts 206°
2026-05-03 20:51 46.49169 -126.00830 31128 ft 524 kts 206°
2026-05-03 20:52 46.46969 -126.02445 31214 ft 525 kts 206°
2026-05-03 20:52 46.43714 -126.04832 31360 ft 525 kts 206°
2026-05-03 20:52 46.40492 -126.07194 31457 ft 527 kts 206°
2026-05-03 20:53 46.33932 -126.11991 31669 ft 529 kts 206°
2026-05-03 20:53 46.30643 -126.14391 31816 ft 530 kts 206°
2026-05-03 20:53 46.27355 -126.16788 31961 ft 530 kts 205°
2026-05-03 20:53 46.22986 -126.19967 32153 ft 531 kts 205°
2026-05-03 20:54 46.20758 -126.21585 32275 ft 531 kts 206°
2026-05-03 20:54 46.14192 -126.26349 32701 ft 529 kts 205°
2026-05-03 20:54 46.10944 -126.28698 32868 ft 529 kts 205°
2026-05-03 20:55 46.07654 -126.31077 33030 ft 529 kts 205°
2026-05-03 20:55 46.04366 -126.33452 33208 ft 529 kts 205°
2026-05-03 20:55 46.01073 -126.35827 33344 ft 530 kts 205°
2026-05-03 20:55 45.97773 -126.38202 33514 ft 530 kts 205°
2026-05-03 20:56 45.94474 -126.40574 33627 ft 531 kts 205°
2026-05-03 20:56 45.91167 -126.42949 33774 ft 532 kts 205°
2026-05-03 20:56 45.87853 -126.45326 33940 ft 532 kts 205°
2026-05-03 20:56 45.84545 -126.47695 33968 ft 531 kts 205°
2026-05-03 20:57 45.78023 -126.52357 33956 ft 524 kts 205°
2026-05-03 20:57 45.71490 -126.57014 33966 ft 527 kts 205°
2026-05-03 20:58 45.64903 -126.61696 33950 ft 529 kts 205°
2026-05-03 20:58 45.58304 -126.66377 33959 ft 529 kts 205°
2026-05-03 20:59 45.51848 -126.71189 33983 ft 525 kts 215°
2026-05-03 20:59 45.49019 -126.74480 33991 ft 526 kts 226°
2026-05-03 20:59 45.46522 -126.78310 33971 ft 529 kts 228°
2026-05-03 21:00 45.42428 -126.84772 33979 ft 529 kts 228°
2026-05-03 21:00 45.36650 -126.93806 33991 ft 528 kts 228°
2026-05-03 21:01 45.31742 -127.01478 33982 ft 527 kts 228°
2026-05-03 21:01 45.26804 -127.09161 33971 ft 526 kts 228°
2026-05-03 21:02 45.21866 -127.16827 33963 ft 526 kts 228°
2026-05-03 21:02 45.16901 -127.24513 33979 ft 531 kts 228°
2026-05-03 21:03 45.11897 -127.32237 33986 ft 533 kts 228°
2026-05-03 21:03 45.06917 -127.39904 33984 ft 532 kts 228°
2026-05-03 21:04 45.01899 -127.47606 33984 ft 534 kts 228°
2026-05-03 21:04 44.96855 -127.55328 33975 ft 531 kts 227°
2026-05-03 21:05 44.91863 -127.62948 33975 ft 528 kts 227°
2026-05-03 21:05 44.86890 -127.70521 33970 ft 531 kts 227°
2026-05-03 21:06 44.81845 -127.78179 33978 ft 534 kts 227°
2026-05-03 21:06 44.76789 -127.85835 33986 ft 534 kts 227°
2026-05-03 21:07 44.71728 -127.93477 33985 ft 535 kts 227°
2026-05-03 21:07 44.66633 -128.01148 33991 ft 537 kts 227°
2026-05-03 21:08 44.61567 -128.08754 33992 ft 537 kts 227°
2026-05-03 21:08 44.56461 -128.16401 33987 ft 537 kts 227°
2026-05-03 21:09 44.51321 -128.24076 33995 ft 541 kts 227°
2026-05-03 21:09 44.46172 -128.31744 33995 ft 540 kts 227°
2026-05-03 21:10 44.41060 -128.39336 34001 ft 539 kts 227°
2026-05-03 21:10 44.35900 -128.46978 34007 ft 541 kts 227°
2026-05-03 21:11 44.30735 -128.54607 34008 ft 540 kts 227°
2026-05-03 21:11 44.25566 -128.62221 34007 ft 540 kts 226°
2026-05-03 21:12 44.20375 -128.69846 34014 ft 543 kts 226°
2026-05-03 21:12 44.15202 -128.77424 34015 ft 543 kts 226°
2026-05-03 21:13 44.09987 -128.85043 34017 ft 544 kts 226°
2026-05-03 21:13 44.04754 -128.92666 34021 ft 546 kts 226°
2026-05-03 21:14 43.99506 -129.00291 34025 ft 545 kts 226°
2026-05-03 21:14 43.94261 -129.07891 34026 ft 546 kts 226°
2026-05-03 21:15 43.89021 -129.15463 34024 ft 549 kts 226°
2026-05-03 21:15 43.83734 -129.23082 34026 ft 549 kts 226°
2026-05-03 21:16 43.78439 -129.30692 34036 ft 548 kts 226°
2026-05-03 21:16 43.73141 -129.38285 34036 ft 548 kts 226°
2026-05-03 21:17 43.68734 -129.44586 34031 ft 548 kts 226°
2026-05-03 21:17 43.62566 -129.53382 34021 ft 549 kts 226°
2026-05-03 21:18 43.57239 -129.60954 34028 ft 550 kts 225°
2026-05-03 21:18 43.51908 -129.68513 34027 ft 549 kts 225°
2026-05-03 21:19 43.46578 -129.76049 34023 ft 550 kts 225°
2026-05-03 21:19 43.41260 -129.83549 34025 ft 552 kts 225°
2026-05-03 21:20 43.35890 -129.91102 34030 ft 552 kts 225°
2026-05-03 21:20 43.30518 -129.98637 34030 ft 554 kts 225°
2026-05-03 21:21 43.25118 -130.06191 34042 ft 553 kts 225°
2026-05-03 21:21 43.19790 -130.13624 34041 ft 549 kts 225°
2026-05-03 21:22 43.14415 -130.21103 34044 ft 552 kts 225°
2026-05-03 21:22 43.09013 -130.28600 34043 ft 553 kts 225°
2026-05-03 21:23 43.03604 -130.36085 34050 ft 554 kts 225°
2026-05-03 21:23 42.98174 -130.43581 34045 ft 556 kts 225°
2026-05-03 21:24 42.92768 -130.51023 34048 ft 555 kts 225°
2026-05-03 21:24 42.87329 -130.58492 34043 ft 555 kts 224°
2026-05-03 21:25 42.81875 -130.65960 34042 ft 557 kts 224°
2026-05-03 21:25 42.76402 -130.73435 34050 ft 557 kts 224°
2026-05-03 21:26 42.70963 -130.80843 34054 ft 558 kts 224°
2026-05-03 21:26 42.65494 -130.88273 34057 ft 553 kts 224°
2026-05-03 21:27 42.60048 -130.95653 34055 ft 554 kts 224°
2026-05-03 21:27 42.54578 -131.03045 34061 ft 556 kts 224°
2026-05-03 21:28 42.49162 -131.10346 34078 ft 557 kts 224°